SWA3055 KMKE-KBNA

Flight info

Callsign SWA3055
Flight time 1h 9m
Altitude 41000
Route UECKR6 DELHI TONES RYYMN3
Aircraft B737/M-SADE2E3GIJ4RWZ/LB1D1

Departure

Time 2026-04-23 19:31
Airport General Mitchell International Airport (KMKE)

Arrival

Time 2026-04-23 20:40
Airport Nashville International Airport (KBNA)
Time Latitude Longitude Altitude Speed Heading
2026-04-23 19:17 42.95057 -87.89951 687 ft 0 kts 258°
2026-04-23 19:23 42.95059 -87.89940 679 ft 2 kts 258°
2026-04-23 19:24 42.95066 -87.89897 680 ft 2 kts 258°
2026-04-23 19:24 42.95068 -87.89880 684 ft 0 kts 258°
2026-04-23 19:27 42.95063 -87.89882 684 ft 1 kts 189°
2026-04-23 19:28 42.95125 -87.89728 686 ft 17 kts 28°
2026-04-23 19:28 42.95332 -87.89582 685 ft 16 kts 27°
2026-04-23 19:29 42.95431 -87.89519 684 ft 15 kts 19°
2026-04-23 19:29 42.95635 -87.89475 683 ft 14 kts
2026-04-23 19:30 42.95741 -87.89331 687 ft 13 kts 114°
2026-04-23 19:30 42.95652 -87.89320 684 ft 31 kts 188°
2026-04-23 19:30 42.94109 -87.89523 908 ft 171 kts 183°
2026-04-23 19:31 42.92915 -87.89778 2040 ft 169 kts 188°
2026-04-23 19:31 42.91816 -87.89776 3309 ft 162 kts 160°
2026-04-23 19:31 42.90798 -87.88816 3828 ft 197 kts 145°
2026-04-23 19:31 42.89651 -87.87519 4156 ft 229 kts 145°
2026-04-23 19:32 42.88408 -87.86089 4935 ft 238 kts 144°
2026-04-23 19:32 42.87104 -87.84589 5620 ft 256 kts 144°
2026-04-23 19:32 42.85716 -87.82992 6532 ft 265 kts 144°
2026-04-23 19:32 42.84302 -87.81364 7573 ft 267 kts 143°
2026-04-23 19:33 42.82870 -87.79719 8611 ft 271 kts 143°
2026-04-23 19:33 42.81416 -87.78053 9624 ft 275 kts 143°
2026-04-23 19:33 42.78369 -87.74577 10767 ft 312 kts 143°
2026-04-23 19:34 42.76629 -87.72595 11057 ft 338 kts 143°
2026-04-23 19:34 42.74799 -87.70505 11745 ft 348 kts 142°
2026-04-23 19:34 42.71029 -87.66221 13450 ft 358 kts 144°
2026-04-23 19:35 42.68844 -87.64590 14182 ft 361 kts 163°
2026-04-23 19:35 42.66379 -87.64006 14989 ft 361 kts 178°
2026-04-23 19:35 42.63858 -87.63832 15791 ft 365 kts 179°
2026-04-23 19:35 42.61296 -87.63710 16537 ft 371 kts 179°
2026-04-23 19:36 42.59580 -87.63618 17025 ft 374 kts 179°
2026-04-23 19:36 42.56963 -87.63450 17766 ft 379 kts 178°
2026-04-23 19:36 42.54310 -87.63259 18459 ft 384 kts 178°
2026-04-23 19:36 42.51627 -87.63053 19112 ft 388 kts 178°
2026-04-23 19:37 42.48918 -87.62831 19792 ft 392 kts 178°
2026-04-23 19:37 42.46185 -87.62608 20462 ft 395 kts 178°
2026-04-23 19:37 42.43429 -87.62388 21126 ft 398 kts 179°
2026-04-23 19:37 42.40664 -87.62561 21756 ft 399 kts 191°
2026-04-23 19:38 42.37922 -87.63229 22428 ft 401 kts 193°
2026-04-23 19:38 42.35166 -87.63899 23058 ft 404 kts 192°
2026-04-23 19:38 42.32376 -87.64528 23651 ft 408 kts 192°
2026-04-23 19:38 42.29655 -87.65567 24131 ft 408 kts 204°
2026-04-23 19:39 42.27036 -87.67073 24652 ft 410 kts 206°
2026-04-23 19:39 42.24406 -87.68633 25147 ft 413 kts 206°
2026-04-23 19:39 42.21827 -87.70153 25608 ft 417 kts 206°
2026-04-23 19:39 42.19122 -87.71721 26084 ft 420 kts 205°
2026-04-23 19:40 42.16414 -87.73268 26548 ft 423 kts 205°
2026-04-23 19:40 42.13686 -87.74816 26994 ft 426 kts 205°
2026-04-23 19:40 42.10941 -87.76369 27424 ft 430 kts 205°
2026-04-23 19:40 42.08151 -87.77846 27850 ft 435 kts 199°
2026-04-23 19:41 42.05128 -87.78471 28252 ft 445 kts 185°
2026-04-23 19:41 42.02019 -87.78498 28701 ft 448 kts 183°
2026-04-23 19:41 41.98892 -87.78490 29093 ft 451 kts 184°
2026-04-23 19:41 41.95734 -87.78534 29453 ft 454 kts 185°
2026-04-23 19:42 41.92560 -87.78593 29811 ft 458 kts 183°
2026-04-23 19:42 41.89403 -87.78446 30155 ft 462 kts 180°
2026-04-23 19:42 41.86185 -87.78142 30487 ft 465 kts 179°
2026-04-23 19:42 41.82959 -87.77772 30914 ft 464 kts 179°
2026-04-23 19:43 41.79751 -87.77391 31402 ft 461 kts 179°
2026-04-23 19:43 41.76555 -87.77024 31850 ft 460 kts 179°
2026-04-23 19:43 41.73359 -87.76676 32233 ft 460 kts 180°
2026-04-23 19:43 41.70167 -87.76345 32609 ft 460 kts 180°
2026-04-23 19:44 41.66982 -87.76026 33019 ft 459 kts 180°
2026-04-23 19:44 41.63837 -87.75717 33418 ft 458 kts 180°
2026-04-23 19:44 41.60660 -87.75409 33796 ft 457 kts 180°
2026-04-23 19:44 41.57489 -87.75102 34136 ft 457 kts 180°
2026-04-23 19:45 41.54315 -87.74796 34459 ft 456 kts 180°
2026-04-23 19:45 41.51151 -87.74490 34786 ft 455 kts 180°
2026-04-23 19:45 41.47996 -87.74184 35123 ft 454 kts 180°
2026-04-23 19:45 41.44848 -87.73879 35437 ft 453 kts 180°
2026-04-23 19:46 41.41710 -87.73576 35735 ft 452 kts 180°
2026-04-23 19:46 41.38564 -87.73272 36028 ft 452 kts 180°
2026-04-23 19:46 41.35433 -87.72969 36349 ft 450 kts 180°
2026-04-23 19:46 41.32306 -87.72667 36654 ft 449 kts 180°
2026-04-23 19:47 41.29190 -87.72367 36928 ft 449 kts 180°
2026-04-23 19:47 41.26071 -87.72066 37214 ft 448 kts 180°
2026-04-23 19:47 41.22960 -87.71767 37502 ft 447 kts 180°
2026-04-23 19:47 41.19861 -87.71469 37786 ft 446 kts 180°
2026-04-23 19:48 41.16803 -87.71175 38052 ft 446 kts 180°
2026-04-23 19:48 41.13705 -87.70878 38301 ft 445 kts 180°
2026-04-23 19:48 41.10622 -87.70582 38577 ft 444 kts 180°
2026-04-23 19:48 41.07541 -87.70287 38786 ft 444 kts 180°
2026-04-23 19:49 41.04450 -87.69992 38952 ft 444 kts 180°
2026-04-23 19:49 41.01370 -87.69698 39137 ft 444 kts 180°
2026-04-23 19:49 40.98286 -87.69403 39326 ft 443 kts 180°
2026-04-23 19:49 40.95210 -87.69110 39509 ft 443 kts 180°
2026-04-23 19:50 40.92133 -87.68816 39682 ft 443 kts 180°
2026-04-23 19:50 40.89053 -87.68523 39859 ft 443 kts 180°
2026-04-23 19:50 40.85981 -87.68230 40045 ft 442 kts 180°
2026-04-23 19:50 40.82911 -87.67938 40199 ft 442 kts 180°
2026-04-23 19:51 40.79838 -87.67647 40348 ft 442 kts 180°
2026-04-23 19:51 40.76768 -87.67355 40517 ft 442 kts 180°
2026-04-23 19:51 40.73742 -87.67069 40690 ft 442 kts 180°
2026-04-23 19:51 40.70679 -87.66778 40836 ft 442 kts 180°
2026-04-23 19:52 40.67607 -87.66488 40917 ft 443 kts 180°
2026-04-23 19:52 40.61424 -87.65905 40922 ft 443 kts 180°
2026-04-23 19:53 40.55288 -87.65324 40929 ft 439 kts 180°
2026-04-23 19:53 40.49247 -87.64754 40925 ft 437 kts 180°
2026-04-23 19:54 40.43204 -87.64186 40941 ft 435 kts 180°
2026-04-23 19:54 40.37173 -87.63621 40949 ft 434 kts 180°
2026-04-23 19:55 40.31139 -87.63057 40953 ft 435 kts 180°
2026-04-23 19:55 40.25082 -87.62492 40958 ft 437 kts 180°
2026-04-23 19:56 40.19008 -87.61925 40956 ft 439 kts 180°
2026-04-23 19:56 40.12898 -87.61357 40957 ft 441 kts 180°
2026-04-23 19:57 40.06763 -87.60786 40949 ft 443 kts 180°
2026-04-23 19:57 40.00650 -87.60218 40948 ft 443 kts 180°
2026-04-23 19:58 39.94491 -87.59647 40947 ft 443 kts 180°
2026-04-23 19:58 39.88332 -87.59077 40956 ft 443 kts 180°
2026-04-23 19:59 39.82186 -87.58509 40957 ft 442 kts 180°
2026-04-23 19:59 39.76058 -87.57944 40957 ft 441 kts 180°
2026-04-23 20:00 39.69940 -87.57381 40961 ft 440 kts 180°
2026-04-23 20:00 39.63836 -87.56820 40962 ft 439 kts 180°
2026-04-23 20:01 39.57737 -87.56261 40957 ft 438 kts 180°
2026-04-23 20:01 39.51691 -87.55709 40963 ft 438 kts 180°
2026-04-23 20:02 39.45614 -87.55154 40957 ft 437 kts 180°
2026-04-23 20:02 39.39548 -87.54601 40956 ft 437 kts 180°
2026-04-23 20:03 39.33469 -87.54048 40956 ft 437 kts 180°
2026-04-23 20:03 39.27402 -87.53496 40962 ft 437 kts 180°
2026-04-23 20:04 39.21320 -87.52945 40959 ft 438 kts 180°
2026-04-23 20:04 39.15236 -87.52394 40957 ft 438 kts 180°
2026-04-23 20:05 39.09148 -87.51844 40961 ft 439 kts 180°
2026-04-23 20:05 39.03093 -87.51298 40948 ft 440 kts 180°
2026-04-23 20:06 38.96984 -87.50747 40958 ft 440 kts 180°
2026-04-23 20:06 38.90882 -87.50198 40955 ft 440 kts 180°
2026-04-23 20:07 38.84770 -87.49650 40961 ft 440 kts 180°
2026-04-23 20:07 38.78661 -87.49102 40962 ft 440 kts 180°
2026-04-23 20:08 38.72582 -87.48558 40958 ft 440 kts 180°
2026-04-23 20:08 38.66474 -87.48013 40965 ft 440 kts 180°
2026-04-23 20:09 38.60369 -87.47469 40970 ft 440 kts 180°
2026-04-23 20:09 38.54257 -87.46925 40961 ft 440 kts 180°
2026-04-23 20:10 38.49183 -87.46474 40973 ft 439 kts 180°
2026-04-23 20:10 38.42049 -87.45841 40973 ft 439 kts 180°
2026-04-23 20:11 38.35954 -87.45301 40975 ft 439 kts 180°
2026-04-23 20:11 38.29894 -87.44765 40982 ft 439 kts 180°
2026-04-23 20:12 38.23802 -87.44228 40982 ft 439 kts 179°
2026-04-23 20:12 38.17712 -87.43691 40987 ft 439 kts 180°
2026-04-23 20:13 38.11604 -87.43155 40357 ft 449 kts 179°
2026-04-23 20:13 38.08474 -87.42881 39728 ft 449 kts 179°
2026-04-23 20:13 38.05374 -87.42606 39243 ft 444 kts 179°
2026-04-23 20:13 38.02288 -87.42335 38540 ft 445 kts 180°
2026-04-23 20:14 37.99211 -87.41874 37809 ft 448 kts 169°
2026-04-23 20:14 37.96266 -87.40522 37233 ft 450 kts 161°
2026-04-23 20:14 37.93393 -87.38943 36500 ft 451 kts 160°
2026-04-23 20:14 37.90532 -87.37336 35844 ft 450 kts 160°
2026-04-23 20:15 37.87651 -87.35724 35068 ft 453 kts 160°
2026-04-23 20:15 37.84753 -87.34125 34301 ft 455 kts 160°
2026-04-23 20:15 37.81832 -87.32532 33403 ft 459 kts 160°
2026-04-23 20:15 37.78883 -87.30940 32508 ft 461 kts 160°
2026-04-23 20:16 37.75936 -87.29355 31896 ft 458 kts 160°
2026-04-23 20:16 37.73052 -87.27807 31281 ft 454 kts 160°
2026-04-23 20:16 37.70155 -87.26255 30695 ft 451 kts 160°
2026-04-23 20:16 37.67271 -87.24711 30104 ft 448 kts 160°
2026-04-23 20:17 37.64415 -87.23183 29429 ft 444 kts 159°
2026-04-23 20:17 37.61581 -87.21668 28782 ft 440 kts 159°
2026-04-23 20:17 37.58780 -87.20171 28171 ft 435 kts 159°
2026-04-23 20:17 37.56007 -87.18691 27574 ft 430 kts 159°
2026-04-23 20:18 37.53264 -87.17227 26958 ft 426 kts 159°
2026-04-23 20:18 37.50539 -87.15775 26362 ft 423 kts 159°
2026-04-23 20:18 37.47844 -87.14340 25771 ft 419 kts 159°
2026-04-23 20:18 37.45164 -87.12914 25183 ft 416 kts 159°
2026-04-23 20:19 37.42540 -87.11518 24611 ft 413 kts 159°
2026-04-23 20:19 37.39863 -87.10095 23992 ft 411 kts 159°
2026-04-23 20:19 37.37268 -87.08721 23367 ft 409 kts 160°
2026-04-23 20:19 37.34547 -87.07847 22773 ft 400 kts 178°
2026-04-23 20:20 37.31808 -87.07817 22404 ft 390 kts 183°
2026-04-23 20:20 37.29117 -87.07932 21985 ft 385 kts 184°
2026-04-23 20:20 37.26447 -87.08080 21595 ft 383 kts 185°
2026-04-23 20:20 37.23791 -87.08223 21211 ft 382 kts 184°
2026-04-23 20:21 37.21126 -87.08353 20827 ft 384 kts 184°
2026-04-23 20:21 37.18445 -87.08471 20408 ft 385 kts 184°
2026-04-23 20:21 37.15771 -87.08580 20014 ft 384 kts 184°
2026-04-23 20:21 37.13107 -87.08683 19618 ft 382 kts 184°
2026-04-23 20:22 37.10456 -87.08782 19237 ft 381 kts 184°
2026-04-23 20:22 37.07812 -87.08880 18847 ft 380 kts 183°
2026-04-23 20:22 37.05173 -87.08977 18457 ft 377 kts 183°
2026-04-23 20:22 37.02559 -87.09072 18025 ft 374 kts 183°
2026-04-23 20:23 36.99978 -87.09167 17614 ft 367 kts 183°
2026-04-23 20:23 36.97440 -87.09261 17236 ft 362 kts 183°
2026-04-23 20:23 36.94935 -87.09354 16866 ft 359 kts 183°
2026-04-23 20:23 36.92475 -87.09446 16509 ft 357 kts 183°
2026-04-23 20:24 36.90001 -87.09538 16147 ft 356 kts 183°
2026-04-23 20:24 36.87543 -87.09628 15774 ft 347 kts 183°
2026-04-23 20:24 36.85189 -87.09713 15425 ft 331 kts 183°
2026-04-23 20:24 36.82938 -87.09783 15084 ft 317 kts 180°
2026-04-23 20:25 36.80816 -87.09282 14724 ft 307 kts 160°
2026-04-23 20:25 36.78911 -87.08181 14399 ft 298 kts 155°
2026-04-23 20:25 36.77083 -87.07031 14021 ft 290 kts 155°
2026-04-23 20:25 36.75311 -87.05911 13666 ft 282 kts 155°
2026-04-23 20:26 36.73576 -87.04826 13294 ft 276 kts 155°
2026-04-23 20:26 36.72442 -87.04123 13066 ft 275 kts 155°
2026-04-23 20:26 36.70730 -87.03070 12716 ft 273 kts 156°
2026-04-23 20:26 36.69031 -87.02030 12403 ft 272 kts 156°
2026-04-23 20:27 36.66773 -87.00650 11925 ft 272 kts 156°
2026-04-23 20:27 36.65622 -86.99947 11682 ft 272 kts 156°
2026-04-23 20:27 36.63923 -86.98909 11301 ft 273 kts 156°
2026-04-23 20:27 36.62223 -86.97860 10924 ft 273 kts 153°
2026-04-23 20:28 36.60799 -86.96286 10535 ft 278 kts 128°
2026-04-23 20:28 36.59954 -86.94174 10163 ft 275 kts 113°
2026-04-23 20:28 36.59333 -86.91941 9778 ft 270 kts 112°
2026-04-23 20:28 36.58738 -86.89735 9370 ft 267 kts 112°
2026-04-23 20:29 36.58148 -86.87560 8975 ft 263 kts 112°
2026-04-23 20:29 36.57562 -86.85427 8609 ft 258 kts 113°
2026-04-23 20:29 36.56980 -86.83335 8255 ft 253 kts 113°
2026-04-23 20:29 36.56405 -86.81283 7891 ft 249 kts 113°
2026-04-23 20:30 36.55837 -86.79266 7559 ft 246 kts 113°
2026-04-23 20:30 36.54693 -86.75231 7013 ft 245 kts 114°
2026-04-23 20:30 36.54097 -86.73270 6878 ft 239 kts 115°
2026-04-23 20:31 36.53508 -86.71365 6796 ft 235 kts 115°
2026-04-23 20:31 36.52913 -86.69456 6717 ft 239 kts 115°
2026-04-23 20:31 36.52306 -86.67516 6657 ft 243 kts 116°
2026-04-23 20:31 36.51692 -86.65541 6576 ft 246 kts 115°
2026-04-23 20:32 36.51068 -86.63565 6493 ft 244 kts 116°
2026-04-23 20:32 36.50446 -86.61605 6404 ft 243 kts 116°
2026-04-23 20:32 36.49781 -86.59684 6307 ft 239 kts 125°
2026-04-23 20:32 36.48856 -86.58015 6223 ft 232 kts 131°
2026-04-23 20:33 36.47885 -86.56412 6159 ft 233 kts 131°
2026-04-23 20:33 36.46904 -86.54831 6055 ft 226 kts 138°
2026-04-23 20:33 36.45588 -86.54001 5968 ft 208 kts 178°
2026-04-23 20:33 36.44178 -86.54188 5836 ft 202 kts 190°
2026-04-23 20:34 36.42790 -86.54467 5680 ft 202 kts 190°
2026-04-23 20:34 36.41441 -86.54800 5513 ft 201 kts 193°
2026-04-23 20:34 36.40097 -86.55240 5361 ft 198 kts 195°
2026-04-23 20:34 36.38782 -86.55732 5205 ft 197 kts 197°
2026-04-23 20:35 36.37477 -86.56239 5081 ft 198 kts 197°
2026-04-23 20:35 36.36166 -86.56763 4845 ft 201 kts 197°
2026-04-23 20:35 36.34847 -86.57297 4726 ft 197 kts 198°
2026-04-23 20:35 36.33547 -86.57818 4593 ft 201 kts 197°
2026-04-23 20:36 36.32219 -86.58351 4373 ft 201 kts 198°
2026-04-23 20:36 36.30897 -86.58881 4127 ft 197 kts 198°
2026-04-23 20:36 36.29596 -86.59403 3837 ft 194 kts 197°
2026-04-23 20:36 36.28328 -86.59912 3610 ft 190 kts 199°
2026-04-23 20:37 36.27092 -86.60410 3364 ft 184 kts 197°
2026-04-23 20:37 36.25884 -86.60893 3116 ft 181 kts 198°
2026-04-23 20:37 36.24700 -86.61370 2897 ft 182 kts 198°
2026-04-23 20:37 36.23496 -86.61856 2668 ft 181 kts 198°
2026-04-23 20:38 36.22294 -86.62335 2415 ft 180 kts 197°
2026-04-23 20:38 36.21103 -86.62816 2180 ft 180 kts 198°
2026-04-23 20:38 36.19928 -86.63285 1957 ft 175 kts 197°
2026-04-23 20:38 36.18772 -86.63753 1730 ft 174 kts 197°
2026-04-23 20:39 36.17641 -86.64208 1486 ft 166 kts 197°
2026-04-23 20:39 36.16578 -86.64635 1250 ft 155 kts 198°
2026-04-23 20:39 36.15606 -86.65025 1052 ft 143 kts 199°
2026-04-23 20:39 36.14690 -86.65388 827 ft 135 kts 199°
2026-04-23 20:40 36.13818 -86.65744 658 ft 129 kts 201°
2026-04-23 20:40 36.12989 -86.66080 577 ft 118 kts 199°
2026-04-23 20:40 36.12373 -86.66327 573 ft 62 kts 198°
2026-04-23 20:40 36.12073 -86.66448 573 ft 39 kts 197°
2026-04-23 20:41 36.11868 -86.66529 574 ft 20 kts 197°
2026-04-23 20:41 36.11851 -86.66642 579 ft 16 kts 306°
2026-04-23 20:41 36.11951 -86.66641 574 ft 15 kts 14°
2026-04-23 20:41 36.12048 -86.66601 575 ft 14 kts 19°
2026-04-23 20:42 36.12141 -86.66564 576 ft 14 kts 19°
2026-04-23 20:42 36.12219 -86.66578 575 ft 13 kts 287°
2026-04-23 20:42 36.12245 -86.66685 575 ft 13 kts 288°
2026-04-23 20:42 36.12272 -86.66788 575 ft 12 kts 287°
2026-04-23 20:43 36.12302 -86.66887 579 ft 12 kts 302°
2026-04-23 20:43 36.12359 -86.66963 573 ft 12 kts 314°
2026-04-23 20:43 36.12427 -86.66998 574 ft 12 kts 30°
2026-04-23 20:43 36.12494 -86.66945 574 ft 11 kts 32°
2026-04-23 20:44 36.12563 -86.66901 577 ft 11 kts 32°
2026-04-23 20:44 36.12627 -86.66852 576 ft 11 kts 30°
2026-04-23 20:44 36.12689 -86.66804 574 ft 10 kts 38°
2026-04-23 20:44 36.12744 -86.66748 577 ft 10 kts 29°
2026-04-23 20:45 36.12812 -86.66738 576 ft 10 kts 350°
2026-04-23 20:45 36.12875 -86.66749 576 ft 9 kts 26°
2026-04-23 20:45 36.12899 -86.66725 578 ft 1 kts 40°
2026-04-23 20:45 36.12904 -86.66720 576 ft 0 kts 40°